Location: Le Rocchette
(44.3500°N, 7.8333°E)
Time: 05:45:25
(UTC+00:00)

SJ 16-02 - Pass Details

Date: 17 November 2019
Orbit: 606 x 616 km, 75.0° (Epoch: 09 December)

Event Time Altitude Azimuth Distance (km) Brightness Sun altitude
Exits shadow 05:14:57 19° 279° (W) 1,443 2.6 -12.8°
Maximum altitude 05:16:05 21° 301° (WNW) 1,364 2.5 -12.7°
Drops below altitude 10° 05:19:28 10° 352° (N) 1,967 3.7 -12.1°
Sets 05:22:10 0° 8° (N) 2,875 4.7 -11.6°
